Вернуться в каталог

NEIJIANG GAOXIN

АктивенНаукаSSO
NORAD 63985·PAYLOAD·🇨🇳 China
Это название спутника еще не подтверждено официальными источниками.

Запущен May 14, 2025 с Jiuquan Satellite Launch Center

Loading…

Ближайшие Пролёты (ближайшие 24 часа)

TLE

СвежийSource: Space-Track

Эпоха: Sep 14, 2026, 22:29 UTC

1 63985U 25100D   26257.93740611  .00016127  00000-0  63849-3 0  9992
2 63985  97.3595 333.0509 0005351 345.6466  14.4620 15.25500874 74557

Отслеживайте NEIJIANG GAOXIN в реальном времени с AllMySat

Download on the App Store